Location: Newark
(50.0306°N, 2.3272°E)
Time: 02:57:54
(UTC+00:00)

Vanguard 1 - Pass Details

Date: 11 December 2019
Orbit: 651 x 3832 km, 34.2° (Epoch: 23 January)

Event Time Altitude Azimuth Distance (km) Brightness Sun altitude
Exits shadow 05:39:24 - 247° (WSW) 7,795 14.2 -18.1°
Reaches altitude 10° 05:44:20 10° 244° (WSW) 6,937 13.9 -17.3°
Maximum altitude 06:05:22 48° 180° (S) 3,910 13.2 -14.1°
Drops below altitude 10° 06:19:46 10° 112° (ESE) 4,908 15.2 -11.9°
Sets 06:23:00 0° 107° (ESE) 5,552 16.1 -11.4°
